GFSMW_sfc_30mbdewp_000.txt.gz
Dewpoint
22 24 29 31 31 32 32 31 31 32 32 33 32 32 33 34 36 36 36 38 37 35 35 35 34 36 35 36 35 36 35 35 37 35 32 32 32 36 41 51 57 58 57
24 26 29 32 33 33 33 32 31 32 33 32 32 32 34 33 34 34 36 36 37 34 35 35 33 34 34 35 37 37 34 36 34 35 34 30 29 33 36 38 44 52 56
24 26 27 30 34 35 35 34 32 32 33 32 32 33 33 32 31 31 34 37 36 37 36 35 35 34 35 35 37 35 34 33 35 34 34 32 30 32 31 33 32 37 44
26 27 27 28 31 35 37 37 35 33 32 35 31 31 29 29 29 30 31 32 39 38 36 35 36 36 36 35 36 35 39 36 35 36 36 35 34 32 31 32 32 31 32
28 28 28 29 29 32 38 37 37 36 34 34 34 32 31 31 32 33 32 32 33 32 32 32 34 36 37 37 37 36 36 38 37 37 36 36 36 36 34 32 32 33 32
29 29 30 31 31 35 35 38 38 37 37 36 35 34 32 33 34 33 32 32 32 32 33 32 32 32 32 32 33 33 33 33 35 35 35 34 34 33 32 31 31 31 31
29 31 32 32 33 34 35 38 38 37 37 37 37 34 36 34 34 34 32 30 29 27 29 28 28 28 28 28 29 29 30 31 31 30 30 30 30 31 30 27 25 25 27
31 31 33 34 35 36 37 36 34 34 35 37 37 37 36 35 35 33 30 27 27 26 27 26 27 27 27 27 28 29 29 30 30 30 32 32 31 30 29 28 28 27 26
31 32 33 34 35 37 37 37 37 37 36 36 38 36 36 34 32 30 29 27 26 24 27 27 26 27 29 29 29 29 28 29 30 30 31 31 31 33 32 30 28 26 26
33 33 34 34 37 38 38 38 39 36 34 34 34 32 32 32 28 27 26 24 24 24 25 25 25 25 26 26 26 27 28 28 29 29 30 30 30 30 30 30 30 31 30
32 33 34 35 37 38 37 36 33 31 32 32 32 31 29 28 25 24 23 23 25 24 24 24 24 24 24 24 25 25 26 26 26 26 27 27 27 27 28 29 29 29 29
31 32 33 34 36 38 38 38 33 30 30 29 30 28 27 24 23 23 25 26 25 25 25 24 24 23 23 23 23 23 22 23 23 23 24 24 24 25 26 27 27 28 28
31 33 33 35 37 38 39 39 30 29 28 26 26 25 25 23 23 27 26 27 27 24 24 23 23 23 23 22 22 22 22 22 22 23 23 23 24 24 25 26 26 26 26
33 33 34 36 38 39 39 35 28 29 27 25 24 25 23 25 27 27 26 26 25 26 25 24 23 22 21 20 20 20 20 21 22 24 26 26 27 27 27 27 27 27 28
35 38 38 37 38 39 39 32 29 27 26 24 23 26 32 31 30 26 26 26 26 25 24 21 20 21 21 19 18 21 22 22 23 23 24 24 24 25 26 26 26 26 26
39 39 37 37 39 39 39 29 27 25 24 26 35 37 35 30 26 25 25 24 24 21 19 20 20 21 19 19 22 25 24 23 23 23 23 24 23 23 24 25 26 26 26
39 39 38 39 39 38 34 32 32 37 38 39 37 34 34 27 24 23 23 23 20 20 19 19 20 20 21 22 25 25 24 24 24 23 23 23 22 23 24 25 26 27 27
40 39 40 38 38 37 36 38 40 37 36 35 35 34 25 22 22 23 22 19 18 18 18 19 20 21 22 23 24 24 23 24 25 25 24 24 24 25 25 25 26 28 29
39 39 37 38 37 37 39 39 39 38 37 31 24 21 20 21 22 20 18 18 18 18 19 19 21 22 22 24 24 24 25 27 27 26 26 25 25 25 25 27 28 28 27
38 35 37 37 37 38 38 35 34 32 23 22 21 20 21 20 18 17 17 17 17 16 20 20 24 24 23 24 25 26 27 28 27 27 29 28 30 29 28 27 28 26 27
33 37 36 36 37 35 33 28 22 22 20 19 19 20 20 16 16 17 16 15 16 19 21 25 24 23 24 24 24 25 25 27 26 26 25 25 25 26 28 30 28 27 27
36 36 36 35 34 32 31 22 16 17 19 20 20 19 18 18 17 17 15 16 17 18 22 21 22 21 22 23 22 25 27 27 26 26 27 27 28 28 29 29 29 29 29
36 36 35 34 34 29 17 17 20 18 19 19 19 19 20 19 17 15 16 16 16 20 21 22 19 19 21 22 22 22 24 28 26 26 27 28 28 27 28 28 28 27 27
35 36 34 31 26 23 19 20 20 21 20 20 21 21 21 19 17 17 17 15 18 21 22 20 20 21 22 21 22 24 27 28 27 28 27 26 27 27 28 28 29 29 29
35 34 31 29 24 23 22 21 23 23 22 23 22 22 22 19 17 18 16 17 21 21 20 22 23 23 21 22 26 28 27 27 28 27 26 26 25 24 24 26 30 29 28
34 30 29 22 21 22 22 23 24 25 25 24 24 24 21 20 20 18 18 19 21 21 22 22 25 25 24 26 27 28 29 28 27 25 24 22 22 23 24 24 27 30 29

GFSMW_sfc_30mbdewp_003.txt.gz
Dewpoint
28 32 32 30 32 31 29 29 30 32 33 32 33 32 32 34 36 36 40 41 39 35 34 35 39 38 37 36 36 37 34 33 36 34 34 33 33 34 34 41 49 54 57
26 29 32 32 30 30 31 30 30 31 32 32 33 32 31 32 33 35 37 39 39 36 35 34 33 34 33 33 33 38 35 36 35 35 34 31 32 32 35 35 37 38 45
25 26 28 31 33 33 32 32 32 31 33 32 32 33 34 35 32 32 36 37 36 37 35 35 35 35 35 33 37 34 32 33 37 35 35 33 32 34 34 35 35 36 37
28 29 27 29 33 34 35 34 33 34 35 35 31 30 30 30 29 29 30 35 37 37 37 35 37 37 37 37 39 38 37 38 36 38 37 37 37 36 34 36 36 36 36
29 28 28 29 30 34 37 36 35 35 35 36 35 32 30 32 31 31 31 34 38 39 37 37 38 37 35 34 33 33 31 34 35 36 37 37 37 38 36 34 35 37 36
29 31 32 33 33 36 37 38 36 35 36 36 36 35 33 31 32 33 33 34 33 32 32 31 31 30 28 28 29 28 27 26 30 33 34 34 34 33 33 33 33 33 33
30 30 30 32 35 37 37 38 39 39 38 38 37 36 36 34 32 32 33 31 29 29 27 28 28 29 29 28 28 26 27 27 28 30 31 33 32 31 29 28 25 25 25
31 32 33 36 37 37 37 38 37 37 38 38 38 38 39 38 34 35 34 30 27 28 28 28 28 26 25 26 29 28 28 28 29 28 31 32 33 34 33 31 29 26 26
33 33 35 37 38 38 37 36 36 35 35 35 35 36 39 36 33 27 27 26 26 27 26 27 26 29 31 31 30 29 28 30 30 31 31 32 31 33 31 32 31 30 27
33 35 35 37 37 38 37 38 37 35 32 32 30 31 28 26 27 27 24 22 25 26 28 29 32 33 31 28 26 27 29 29 30 30 31 31 32 33 33 33 33 33 31
32 33 34 38 38 38 39 39 37 37 29 31 30 29 27 24 24 22 23 24 25 25 27 29 31 29 24 25 26 26 27 26 27 28 27 27 28 29 29 29 29 29 28
33 34 37 38 38 39 40 39 38 32 27 31 28 26 24 21 20 23 25 26 26 27 26 27 24 25 26 26 25 25 24 24 24 25 26 26 26 26 26 27 27 27 27
36 39 39 39 38 38 39 39 38 28 28 26 24 22 21 21 24 26 25 25 25 26 24 24 26 26 26 25 24 23 23 22 23 23 24 24 25 25 26 28 28 29 29
38 39 39 39 38 38 39 39 31 29 30 25 23 22 23 23 27 27 27 26 26 25 26 26 25 25 24 22 22 21 21 22 22 24 25 25 25 25 25 25 26 27 27
39 39 39 39 38 39 39 34 31 32 31 25 25 30 32 31 29 29 26 27 27 26 26 26 23 22 23 21 20 24 24 24 23 24 24 24 25 25 26 24 23 23 24
39 38 39 39 39 39 36 35 35 35 36 36 37 37 35 34 32 27 27 27 25 25 21 20 21 20 20 21 28 27 25 24 24 23 23 23 23 24 24 24 25 25 23
39 39 39 39 39 39 36 36 37 38 38 38 37 37 37 36 34 30 25 24 22 20 18 18 19 20 23 25 25 24 23 23 23 22 23 23 22 23 23 23 24 24 25
40 39 38 38 38 37 37 38 39 40 37 36 36 36 37 35 25 23 22 20 18 17 16 17 21 22 22 24 25 24 24 24 23 23 23 24 24 24 24 23 23 23 24
40 38 38 38 37 36 37 38 38 38 38 36 33 25 23 21 20 19 17 16 15 15 17 20 20 23 24 24 25 25 24 24 25 25 26 26 26 26 26 26 27 26 25
39 37 37 36 36 36 37 35 31 34 21 19 20 21 20 19 16 16 15 16 16 16 19 20 25 23 23 23 23 22 24 26 25 25 25 26 25 27 29 29 27 26 25
36 36 35 35 36 33 29 24 15 17 19 21 21 20 19 17 17 17 16 14 16 18 20 21 21 22 22 22 22 21 23 25 24 24 24 25 25 25 26 27 28 27 27
35 35 35 35 33 31 24 12 15 19 20 20 20 20 20 19 18 15 15 16 17 19 20 21 20 20 20 22 22 22 23 23 25 24 25 25 26 26 27 28 29 29 29
34 35 35 34 31 20 18 21 21 22 22 21 22 22 21 21 17 16 16 18 19 20 20 20 19 19 21 23 22 21 23 25 26 27 27 28 28 28 28 28 28 28 27
34 35 32 29 28 20 20 21 24 24 22 23 23 23 22 20 18 18 19 18 18 18 20 19 20 21 22 21 21 24 27 28 27 26 27 25 25 26 26 26 26 27 28
34 34 30 29 24 23 23 24 24 24 24 24 24 24 22 19 20 20 19 19 19 21 21 21 23 22 20 21 25 26 27 28 27 25 22 22 21 21 23 23 24 29 27
34 33 29 22 22 23 23 24 25 24 24 24 24 24 21 20 20 20 19 20 21 22 20 22 25 23 23 25 26 26 27 27 26 23 21 20 20 20 20 21 22 24 28

GFSMW_sfc_30mbdewp_006.txt.gz
Dewpoint
32 31 32 32 31 30 30 31 30 30 32 33 33 32 31 34 36 38 46 45 43 40 37 36 40 40 37 37 37 35 35 33 35 34 34 34 34 34 33 38 39 42 46
30 30 30 30 30 29 29 30 30 30 32 32 32 32 31 32 33 34 38 43 43 40 37 35 36 38 38 36 37 37 36 35 37 34 34 31 31 33 35 35 36 37 39
26 30 31 30 30 30 30 30 30 30 31 32 33 33 34 34 34 33 35 37 42 40 37 36 36 35 36 33 34 35 35 34 37 36 35 32 30 35 35 36 37 37 38
27 27 28 31 32 32 33 32 32 32 32 33 33 31 30 30 31 31 32 35 39 39 39 37 37 36 37 38 38 37 37 37 33 35 38 37 37 33 29 33 35 36 37
28 28 29 29 30 33 34 35 35 35 35 37 36 34 32 32 32 33 31 31 35 38 39 39 39 39 37 33 30 29 26 30 29 28 29 31 32 34 31 27 26 30 35
30 31 32 32 34 37 37 38 38 37 37 38 38 37 36 35 34 34 33 34 36 37 38 37 35 33 31 30 29 29 29 28 28 29 29 29 28 27 29 27 26 26 26
30 30 31 34 37 37 38 37 37 37 37 37 36 37 38 38 37 34 35 36 32 31 29 30 31 29 30 32 32 33 35 33 30 27 27 28 30 31 31 31 29 29 29
32 33 36 37 37 37 37 37 37 36 35 36 35 37 39 39 40 38 36 35 32 30 31 32 34 35 35 35 35 35 36 33 29 28 28 29 30 32 29 29 30 29 26
35 36 37 38 38 37 38 39 38 37 37 36 34 33 33 34 33 31 31 31 30 30 32 36 38 40 40 39 34 31 28 31 30 28 29 30 31 33 33 33 31 28 26
33 35 37 38 38 38 39 39 39 38 37 30 32 29 28 28 28 26 25 27 31 35 38 39 38 38 36 32 30 30 29 27 29 29 30 30 31 32 33 32 31 30 28
35 36 38 39 38 39 39 39 39 39 29 29 31 29 25 25 25 24 26 27 29 31 31 31 32 32 31 29 28 27 27 27 27 27 27 27 28 28 29 30 30 30 30
36 38 39 39 39 39 39 39 40 31 30 30 30 29 25 24 23 26 26 27 27 26 26 27 27 27 27 28 26 26 25 24 23 24 24 24 24 24 26 27 27 28 28
39 39 39 38 39 39 38 39 39 32 33 31 29 25 22 22 25 25 26 26 25 25 26 25 25 26 26 26 26 24 23 23 23 23 24 25 26 26 27 27 26 27 27
39 39 39 39 40 39 39 40 33 34 35 32 27 24 23 24 27 26 27 26 26 25 25 25 27 27 27 25 24 23 24 24 24 24 24 24 24 24 24 24 24 24 24
39 39 39 39 40 39 40 36 36 36 36 30 27 28 30 30 29 28 29 32 28 27 28 27 24 23 22 20 25 25 24 24 23 23 24 23 24 25 26 25 24 23 22
38 37 39 40 39 39 39 36 36 37 38 36 37 36 35 35 36 36 34 32 29 26 22 20 19 19 20 24 27 27 25 23 22 22 22 22 22 22 23 24 24 24 23
37 38 40 40 39 38 37 36 37 39 38 38 38 39 39 38 35 35 33 27 22 19 17 16 17 20 23 23 25 25 23 23 24 23 23 22 22 22 23 23 24 25 25
37 39 40 39 38 37 36 37 38 38 38 38 37 36 36 33 28 23 21 18 16 15 16 17 20 21 22 25 23 24 24 24 24 24 24 24 24 24 24 24 24 24 24
39 40 38 37 37 35 36 37 33 35 27 21 21 23 23 21 19 16 16 16 16 15 15 19 22 23 22 24 23 22 22 23 24 26 25 25 25 25 24 26 26 24 26
38 36 35 35 35 35 30 21 19 19 20 21 21 22 21 18 17 17 16 15 15 17 21 22 22 21 21 22 21 21 23 24 23 23 23 24 24 24 25 25 25 25 25
35 35 35 35 35 32 24 16 18 19 21 21 22 21 21 19 19 16 16 16 18 20 20 19 19 19 20 21 22 22 23 24 23 23 23 24 24 26 27 27 26 26 26
34 34 35 34 33 20 16 17 21 22 22 22 22 22 22 21 18 16 17 18 19 19 17 17 18 19 19 21 23 21 22 23 25 24 25 26 27 27 28 29 28 27 28
33 34 35 32 28 17 20 22 23 23 23 23 22 23 23 21 18 18 19 18 18 18 18 19 19 20 21 22 23 22 23 25 26 27 26 25 23 23 26 26 27 27 26
32 34 34 30 29 21 22 23 24 23 23 22 23 24 23 21 20 20 19 19 17 18 20 19 20 21 21 20 21 24 26 26 27 25 23 22 22 21 22 23 24 25 26
33 35 35 34 28 23 23 24 24 24 23 23 23 23 23 20 20 20 20 19 20 21 20 19 23 20 18 20 26 25 25 27 26 25 20 19 19 19 20 20 22 23 25
36 33 33 25 23 23 23 24 25 24 24 23 22 22 22 22 20 20 21 21 22 21 20 22 22 21 22 25 23 24 26 25 25 22 21 18 18 18 19 19 19 21 22

GFSMW_sfc_30mbdewp_012.txt.gz
Dewpoint
31 32 32 33 35 37 37 34 36 38 37 35 34 34 33 34 36 37 38 41 45 47 47 46 45 45 42 40 39 37 35 35 37 34 33 33 35 34 34 35 37 35 38
29 30 32 32 34 34 33 31 30 30 31 33 33 33 32 33 34 34 35 37 40 44 46 45 43 43 43 40 38 37 35 35 36 32 33 28 29 32 34 35 33 35 37
28 29 30 30 30 30 31 31 31 31 31 33 33 33 34 34 33 33 33 34 36 39 44 44 43 41 42 40 38 37 36 34 36 36 31 30 27 30 30 32 26 34 27
29 30 30 29 30 30 32 33 34 35 36 37 36 36 35 35 35 35 35 35 36 37 40 44 45 42 40 40 39 38 38 36 35 36 38 32 32 19 19 25 30 24 27
27 27 28 30 36 35 38 38 38 38 38 38 38 37 36 37 38 39 38 38 38 38 38 39 42 42 40 39 38 35 34 32 31 28 30 30 32 33 27 21 22 25 26
29 31 33 37 37 37 37 38 38 38 38 39 37 34 34 35 35 35 36 37 39 38 37 40 40 37 35 34 36 37 37 37 36 35 35 32 29 29 31 31 29 24 26
31 31 36 37 37 37 38 38 39 38 39 39 34 33 33 33 33 34 35 36 37 34 34 35 35 37 38 39 40 40 40 39 38 38 37 38 37 36 34 31 28 26 26
37 37 37 37 37 38 38 39 39 39 40 38 32 33 34 33 32 33 33 34 34 34 37 39 39 39 39 40 40 40 39 39 37 35 36 36 35 35 33 30 28 26 25
36 37 38 38 38 38 39 39 39 39 40 38 32 34 34 34 32 30 31 33 33 37 39 39 38 38 38 38 38 37 35 36 36 35 35 34 34 34 34 33 32 29 25
36 37 37 38 39 39 39 40 40 39 40 35 34 35 35 34 32 30 31 32 35 38 39 38 35 34 34 35 38 39 38 36 35 34 32 30 30 29 30 30 31 31 30
35 37 38 39 39 40 40 40 39 39 40 34 35 36 35 35 32 28 30 32 35 36 33 31 30 32 33 34 33 31 29 27 27 26 25 24 25 25 26 27 28 28 29
36 37 38 40 40 39 40 40 39 40 39 35 36 36 36 32 28 27 29 30 28 27 27 26 27 27 27 28 28 27 27 25 23 23 24 24 25 25 26 27 27 27 27
38 38 39 39 40 40 39 41 40 40 36 37 37 37 30 26 26 27 29 31 31 30 30 28 27 28 29 29 26 24 23 23 24 24 24 24 24 23 23 24 24 25 25
38 39 39 40 40 39 40 41 40 38 37 38 38 31 28 26 28 33 36 35 33 32 33 30 28 24 22 21 20 22 24 24 24 24 23 22 22 21 21 21 22 22 23
38 38 39 39 38 39 41 39 38 37 37 38 36 34 35 36 37 37 37 36 35 36 33 26 20 20 19 18 24 25 24 24 23 24 23 21 22 22 22 22 22 23 24
39 39 37 37 38 39 39 38 37 36 38 38 37 38 39 38 37 36 36 35 36 36 29 18 18 19 21 24 26 27 27 25 24 22 21 22 22 23 23 23 24 24 24
37 34 32 33 38 38 37 36 36 37 37 31 29 30 29 27 27 29 28 23 19 18 17 17 19 21 23 23 23 22 23 24 23 23 22 22 22 23 23 24 23 23 23
36 34 33 38 35 36 35 34 28 27 27 26 29 29 28 27 26 20 18 18 17 16 17 18 22 21 19 20 21 21 22 22 22 22 22 23 23 23 23 24 24 24 24
35 36 37 35 34 34 28 21 22 23 26 29 30 26 21 20 20 19 18 17 16 17 19 22 20 19 19 20 21 22 22 22 22 23 23 23 23 23 24 24 24 24 24
36 36 34 33 34 35 26 26 29 27 24 23 22 22 22 22 21 18 17 17 19 20 21 18 19 19 18 20 22 22 22 22 23 23 22 22 23 25 26 26 25 24 24
35 34 33 33 35 34 26 25 21 22 22 23 23 22 23 22 19 19 19 19 19 19 17 17 18 18 19 20 22 21 22 23 23 23 23 24 26 23 22 22 22 23 24
33 32 32 33 34 33 23 21 19 23 23 23 21 22 23 22 20 20 20 19 19 18 18 18 19 19 19 21 20 20 21 24 24 23 25 25 22 21 21 22 23 23 24
31 32 32 34 34 33 23 30 32 29 23 22 21 22 23 22 20 20 19 20 19 19 19 20 19 19 20 19 19 20 22 24 24 26 26 24 20 20 20 21 22 23 23
30 31 32 34 32 31 31 25 24 24 23 22 22 22 22 22 21 21 19 20 20 20 20 20 18 19 18 18 19 23 23 24 26 25 24 22 21 18 18 20 20 21 22
31 31 33 33 31 31 29 25 24 24 23 23 23 23 23 23 23 23 20 21 22 21 21 19 19 19 18 19 23 23 22 24 23 24 21 18 17 16 17 17 17 18 19
31 32 33 31 30 28 24 24 24 25 24 23 24 23 22 22 22 21 20 21 21 21 19 19 19 19 18 21 22 22 22 23 21 19 17 16 15 14 16 16 15 15 16

GFSMW_sfc_30mbdewp_015.txt.gz
Dewpoint
31 32 34 35 37 42 44 45 43 44 44 41 38 37 37 37 38 38 40 41 42 44 47 46 48 49 47 46 46 45 44 41 39 37 35 36 38 38 36 36 34 36 37
30 32 34 36 38 39 41 38 34 34 34 35 36 37 37 37 37 38 40 41 41 41 42 44 44 45 45 46 46 45 41 40 40 34 34 31 32 35 37 36 36 35 37
30 31 32 34 35 35 35 33 34 36 37 39 38 38 39 39 37 36 36 38 41 41 41 42 43 44 44 43 45 45 43 40 39 39 33 31 29 31 34 36 34 34 30
30 31 32 34 36 37 41 40 40 39 40 41 39 39 36 35 35 37 37 39 40 40 41 41 42 43 44 44 43 43 43 41 38 38 38 38 34 30 28 30 30 32 27
30 32 36 38 38 40 40 41 40 40 41 41 38 37 37 37 37 37 36 37 38 40 40 39 41 42 42 43 43 42 41 40 39 37 37 33 32 33 27 27 27 25 29
32 33 38 38 39 41 41 42 41 40 41 41 37 38 38 38 37 37 35 34 35 37 38 39 40 40 39 39 40 40 40 39 38 38 38 35 33 31 33 31 32 32 31
37 37 37 38 38 39 40 40 40 40 41 41 37 37 38 39 38 37 35 35 34 35 36 38 39 39 40 40 39 39 39 38 37 37 36 36 34 34 34 33 33 32 29
38 38 38 38 39 40 40 41 40 40 41 41 39 37 39 38 37 35 36 35 34 35 39 39 39 40 40 40 39 38 38 37 36 35 35 35 35 36 35 34 33 29 27
37 38 38 39 40 40 40 41 41 39 40 41 39 37 38 38 36 37 36 34 35 38 39 40 39 40 40 40 38 37 36 36 36 36 35 34 33 35 34 32 30 26 20
36 37 38 39 40 41 41 41 42 40 40 41 38 37 38 37 37 35 33 33 36 39 39 39 35 34 34 36 36 36 37 36 35 34 34 33 33 32 32 31 30 26 22
37 37 38 39 40 41 41 41 42 41 40 40 37 38 38 37 32 30 31 33 37 37 33 30 30 31 32 31 31 31 31 31 30 30 28 27 26 24 24 24 23 21 20
38 38 39 39 41 41 40 40 42 41 40 38 38 38 35 29 28 29 31 32 30 30 31 33 34 32 30 30 30 28 27 25 23 22 23 21 21 23 24 24 24 24 23
39 39 39 40 40 38 39 40 41 40 39 37 38 35 30 28 29 34 35 35 34 35 35 34 33 31 27 22 21 20 20 20 21 23 23 24 24 22 21 21 20 20 19
39 39 39 38 37 37 39 40 39 38 37 38 37 34 33 31 36 37 37 36 36 35 35 35 34 32 26 20 19 21 22 23 23 24 24 22 21 20 19 18 18 18 18
39 39 36 34 35 38 38 37 36 37 38 38 38 37 37 38 38 36 32 33 32 32 35 32 23 21 20 18 23 22 23 23 22 22 22 21 20 21 21 20 20 20 19
38 35 33 32 34 37 35 34 35 36 38 36 34 31 31 31 29 30 31 32 30 22 20 19 19 20 20 24 24 23 20 20 20 20 19 19 20 20 22 23 24 24 21
35 32 30 33 37 34 33 34 34 34 31 30 29 30 30 30 27 25 21 21 20 19 18 19 20 21 20 20 21 21 19 19 20 19 19 18 19 21 21 22 22 24 23
33 31 32 37 35 32 35 31 28 29 28 28 30 30 25 22 22 21 20 19 19 18 18 20 21 19 18 19 20 21 21 21 21 20 20 20 21 22 22 22 22 23 23
34 31 36 35 32 34 34 23 23 25 27 27 23 22 23 21 21 20 19 19 19 19 20 19 18 18 18 18 21 22 21 21 21 21 21 21 21 22 24 24 25 24 22
30 34 35 33 32 34 35 31 27 28 24 23 23 22 22 22 21 20 19 20 20 19 20 18 19 20 20 20 21 21 20 20 20 21 21 22 24 25 27 26 24 22 20
30 35 33 31 32 34 34 30 24 21 23 24 23 21 22 22 21 20 20 19 19 21 22 22 22 22 20 20 20 19 20 20 21 21 20 24 27 26 24 22 21 22 22
31 34 31 31 33 34 30 24 24 26 27 25 22 21 22 22 20 20 20 19 20 21 22 21 21 19 20 20 19 19 21 21 23 22 24 27 24 22 20 21 22 23 23
33 33 31 32 34 34 32 27 29 32 31 24 22 22 22 22 21 21 22 20 20 21 20 19 18 17 17 18 17 20 22 20 22 25 26 24 22 19 18 19 20 21 21
32 32 31 31 33 33 31 31 30 26 24 23 22 23 23 23 23 23 23 20 21 21 19 19 18 17 15 16 18 20 20 20 24 24 24 22 21 18 18 18 19 20 21
32 32 32 32 33 33 31 29 26 25 24 24 24 24 24 23 23 22 21 21 23 21 20 18 17 17 16 17 22 21 21 22 22 23 21 19 18 15 16 16 17 18 19
32 31 31 30 26 26 24 25 25 25 25 24 24 25 24 24 22 20 20 21 22 21 20 18 18 17 17 20 20 20 20 21 20 19 17 16 16 15 15 15 15 16 17